Location: Kershaw
(34.5481°N, 80.5823°W)
Time: 01:53:37
(UTC+00:00)

Altair - Pass Details

Date: 05 October 2022
Orbit: 1501 x 1682 km, 47.2° (Epoch: 05 December)

Event Time Altitude Azimuth Distance (km) Brightness Sun altitude
Exits shadow 09:39:20 30° 245° (WSW) 2,534 8.1 -21.5°
Maximum altitude 09:44:48 77° 327° (NNW) 1,652 7.5 -20.4°
Drops below altitude 10° 09:54:50 10° 54° (NE) 3,906 10.5 -18.3°
Sets 09:58:03 0° 56° (NE) 4,911 11.3 -17.7°
